Tracking 19908 objects as of 19-Oct-2019
HD Live streaming from Space Station
objects crossing your sky now

OPS 5798 (TRANSIT 5B-4)

Track OPS 5798 (TRANSIT 5B-4) now!
10-day predictions
OPS 5798 (TRANSIT 5B-4) is classified as:


NORAD ID: 897
Int'l Code: 1964-063B
Perigee: 1,051.2 km
Apogee: 1,082.3 km
Inclination: 90.2 °
Period: 106.4 minutes
Semi major axis: 7437 km
RCS: 0.5573 m2 (medium)
Launch date: October 6, 1964
Source: United States (US)
Launch site: AIR FORCE WESTERN TEST RANGE (AFWTR)
aabbcc
Your satellite tracking list
Your tracking list is empty




NASA's NSSDC Master Catalog

Two Line Element Set (TLE):
1   897U 64063B   19291.85577477 +.00000043 +00000-0 +50485-4 0  9998
2   897 090.1645 026.9384 0020950 054.1157 081.4347 13.53440115716077
Source of the keplerian elements: AFSPC